Weather History for Goodland, KS

Change the Weather History Date:

Sunday, October 20, 2013

  Actual Average Record
Temperature  
Mean Temperature 44 °F 50 °F  
Max Temperature 54 °F 65 °F 89 °F (1947)
Min Temperature 33 °F 36 °F 16 °F (1916)
Degree Days  
Heating Degree Days 21 15  
Month to date heating degree days 260 229  
Since 1 July heating degree days 314 353  
Cooling Degree Days 0 0  
Month to date cooling degree days 0 5  
Year to date cooling degree days 1181 938  
Moisture  
Dew Point 33 °F    
Average Humidity 68    
Maximum Humidity 89    
Minimum Humidity 46    
Precipitation  
Precipitation 0.00 in 0.05 in 0.79 in (1918)
Month to date precipitation 1.21 0.94  
Year to date precipitation 16.49 18.06  
Snow  
Snow 0.00 in 0.10 in - ()
Month to date snowfall 4.0 1.1  
Since 1 July snowfall 4.0 1.5  
Since 1 September snowfall 4.0 1.5  
Snow Depth 0.00 in    
Sea Level Pressure  
Sea Level Pressure 29.96 in    
Wind  
Wind Speed 12 mph (NW)    
Max Wind Speed 24 mph    
Max Gust Speed 30 mph    
Visibility 10 miles    
Events      
T = Trace of Precipitation, MM = Missing Value Source: NWS Daily Summary

Daily Weather History Graph

Daily Weather History Graph

Search for Another Location

Airport:

Trip Planner

Search our weather history database for the weather conditions in past years. The results will help you decide how hot, cold, wet, or windy it might be!

Date:

Astronomy

Oct. 20, 2013 Rise Set
Actual Time 7:02 AM MDT 6:00 PM MDT
Civil Twilight 6:34 AM MDT 6:27 PM MDT
Nautical Twilight 6:03 AM MDT 6:58 PM MDT
Astronomical Twilight 5:32 AM MDT 7:29 PM MDT
Moon 7:10 PM MDT 8:41 AM MDT
Length of Visible Light 11h 52m
Length of Day
10h 58m
Full, 97% of the Moon is Illuminated
Oct 20
Full
Oct 26
Last Quarter
Nov 3
New
Nov 9
First Quarter
Nov 17
Full

Hourly Weather History & Observations

Time (MDT) Temp. Windchill Dew Point Humidity Pressure Visibility Wind Dir Wind Speed Gust Speed Precip Events Conditions
12:53 AM 37.9 °F 32.1 °F 30.0 °F 73% 29.85 in 10.0 mi WSW 8.1 mph - N/A   Clear
1:53 AM 36.0 °F 29.0 °F 28.9 °F 76% 29.84 in 10.0 mi WSW 9.2 mph - N/A   Clear
2:53 AM 37.0 °F 29.8 °F 28.9 °F 73% 29.81 in 10.0 mi WSW 10.4 mph - N/A   Clear
3:53 AM 37.0 °F 29.8 °F 28.0 °F 70% 29.81 in 10.0 mi West 10.4 mph - N/A   Clear
4:53 AM 37.9 °F 30.0 °F 28.0 °F 68% 29.81 in 10.0 mi West 12.7 mph - N/A   Clear
5:53 AM 39.9 °F 32.5 °F 28.9 °F 65% 29.84 in 10.0 mi NW 12.7 mph - N/A   Clear
6:53 AM 37.0 °F 30.4 °F 30.0 °F 76% 29.90 in 10.0 mi NW 9.2 mph - N/A   Clear
7:53 AM 41.0 °F 35.2 °F 32.0 °F 70% 29.92 in 10.0 mi NNW 9.2 mph - N/A   Clear
8:53 AM 46.9 °F - 34.0 °F 61% 29.94 in 10.0 mi NNW 10.4 mph - N/A   Clear
9:53 AM 48.9 °F - 35.1 °F 59% 29.96 in 10.0 mi North 10.4 mph - N/A   Partly Cloudy
10:53 AM 50.0 °F - 36.0 °F 59% 29.98 in 10.0 mi North 12.7 mph - N/A   Mostly Cloudy
11:53 AM 53.1 °F - 37.9 °F 57% 29.98 in 10.0 mi North 18.4 mph - N/A   Overcast
12:53 PM 52.0 °F - 37.9 °F 59% 29.96 in 10.0 mi NNW 19.6 mph 24.2 mph N/A   Overcast
1:53 PM 53.1 °F - 37.9 °F 57% 29.96 in 10.0 mi NNW 19.6 mph 25.3 mph N/A   Scattered Clouds
2:53 PM 52.0 °F - 37.0 °F 57% 29.97 in 10.0 mi NNW 16.1 mph - N/A   Overcast
3:53 PM 54.0 °F - 36.0 °F 51% 29.96 in 10.0 mi North 20.7 mph 25.3 mph N/A   Overcast
4:53 PM 53.1 °F - 33.1 °F 47% 29.96 in 10.0 mi North 18.4 mph 25.3 mph N/A   Overcast
5:53 PM 50.0 °F - 33.1 °F 52% 30.01 in 10.0 mi NNW 13.8 mph - N/A   Overcast
6:53 PM 44.1 °F 39.0 °F 34.0 °F 68% 30.04 in 10.0 mi NW 9.2 mph - N/A   Clear
7:53 PM 39.9 °F 35.1 °F 33.1 °F 77% 30.07 in 10.0 mi NNW 6.9 mph - N/A   Clear
8:53 PM 37.9 °F 32.1 °F 32.0 °F 79% 30.09 in 10.0 mi NNW 8.1 mph - N/A   Clear
9:53 PM 35.1 °F 31.0 °F 30.9 °F 85% 30.12 in 10.0 mi NNW 4.6 mph - N/A   Clear
10:53 PM 36.0 °F 33.3 °F 30.9 °F 82% 30.13 in 10.0 mi WNW 3.5 mph - N/A   Partly Cloudy
11:53 PM 36.0 °F 29.6 °F 32.0 °F 86% 30.13 in 10.0 mi West 8.1 mph - N/A   Clear